User: anonymous   Login
Location: Copper Breaks State Park
(34.1132°N, 99.7492°W)
Time: 14:36:02
(UTC-06:00)
Language:

SL-16 R/B - Orbit

View from above orbital plane
View from above orbital plane
View from above satellite
View from above satellite

Ground track
Ground track

The orbit data is extracted from the following two-line orbital elements,

1 27006U 01056F   17057.89752451 -.00000049  00000-0 -70498-5 0  9996
2 27006  99.2937 202.5804 0013966 235.1843 290.1286 13.70972135761389
Epoch (UTC): 26 February 2017 21:32:26
Eccentricity: 0.0013966
inclination: 99.2937°
perigee height: 986 km
apogee height: 1006 km
right ascension of ascending node: 202.5804°
argument of perigee: 235.1843°
revolutions per day: 13.70972135
mean anomaly at epoch: 290.1286°
orbit number at epoch: 76138

The dashed part of the orbit path shows where the satellite is in the earth's shadow,  

DLR